| time (UTC) | temp F | wind direction | speed MPH | gust MPH | rain 1hr in | rain 24hr in | rain mn in | humidity % | barometer mb |
| 20260508173339 | 67 | 349 | 2.0 | 5.0 | 0.00 | 0.00 | 0.00 | 36 | 1019.3 |
| 20260508172839 | 67 | 241 | 3.0 | 5.0 | 0.00 | 0.00 | 0.00 | 37 | 1019.0 |
| 20260508172340 | 67 | 256 | 3.0 | 6.0 | 0.00 | 0.00 | 0.00 | 36 | 1019.0 |
| 20260508171840 | 67 | 135 | 0.0 | 3.0 | 0.00 | 0.00 | 0.00 | 39 | 1019.3 |
| 20260508171341 | 66 | 247 | 2.0 | 3.0 | 0.00 | 0.00 | 0.00 | 40 | 1019.3 |
| 20260508170840 | 66 | 281 | 1.0 | 3.0 | 0.00 | 0.00 | 0.00 | 35 | 1020.0 |
| 20260508170341 | 66 | 199 | 3.0 | 6.0 | 0.00 | 0.00 | 0.00 | 39 | 1019.6 |
| 20260508165840 | 67 | 104 | 2.0 | 5.0 | 0.00 | 0.00 | 0.00 | 35 | 1020.0 |
| 20260508165340 | 66 | 285 | 2.0 | 4.0 | 0.00 | 0.00 | 0.00 | 38 | 1020.3 |
| 20260508164840 | 66 | 217 | 3.0 | 3.0 | 0.00 | 0.00 | 0.00 | 42 | 1020.3 |
| 20260508164339 | 65 | 108 | 3.0 | 3.0 | 0.00 | 0.00 | 0.00 | 41 | 1020.3 |
| 20260508163840 | 65 | 63 | 1.0 | 5.0 | 0.00 | 0.00 | 0.00 | 35 | 1020.3 |
| 20260508162857 | 64 | 219 | 3.0 | 4.0 | 0.00 | 0.00 | 0.00 | 42 | 1020.7 |
| 20260508162340 | 64 | 81 | 1.0 | 3.0 | 0.00 | 0.00 | 0.00 | 41 | 1020.7 |
| 20260508161840 | 63 | 30 | 1.0 | 4.0 | 0.00 | 0.00 | 0.00 | 37 | 1020.7 |
| 20260508161339 | 63 | 111 | 0.0 | 3.0 | 0.00 | 0.00 | 0.00 | 40 | 1020.7 |
| 20260508160840 | 63 | 119 | 0.0 | 2.0 | 0.00 | 0.00 | 0.00 | 46 | 1021.0 |
| 20260508160339 | 62 | 157 | 0.0 | 4.0 | 0.00 | 0.00 | 0.00 | 42 | 1021.0 |
| 20260508155840 | 62 | 89 | 0.0 | 6.0 | 0.00 | 0.00 | 0.00 | 41 | 1021.0 |
| 20260508155341 | 61 | 184 | 1.0 | 3.0 | 0.00 | 0.00 | 0.00 | 47 | 1021.3 |
| 20260508154839 | 61 | 215 | 0.0 | 2.0 | 0.00 | 0.00 | 0.00 | 43 | 1021.3 |
| 20260508154339 | 62 | 65 | 2.0 | 3.0 | 0.00 | 0.00 | 0.00 | 48 | 1021.3 |
| 20260508153840 | 62 | 149 | 1.0 | 2.0 | 0.00 | 0.00 | 0.00 | 49 | 1021.3 |
| 20260508153340 | 59 | 281 | 4.0 | 8.0 | 0.00 | 0.00 | 0.00 | 48 | 1021.7 |
| 20260508152839 | 59 | 105 | 1.0 | 5.0 | 0.00 | 0.00 | 0.00 | 52 | 1021.7 |
| 20260508152340 | 59 | 161 | 3.0 | 5.0 | 0.00 | 0.00 | 0.00 | 52 | 1021.3 |
| 20260508151840 | 58 | 96 | 3.0 | 5.0 | 0.00 | 0.00 | 0.00 | 51 | 1021.7 |
| 20260508151340 | 58 | 89 | 3.0 | 4.0 | 0.00 | 0.00 | 0.00 | 53 | 1021.7 |
| 20260508150840 | 57 | 214 | 3.0 | 4.0 | 0.00 | 0.00 | 0.00 | 55 | 1021.7 |
| 20260508150343 | 56 | 123 | 3.0 | 4.0 | 0.00 | 0.00 | 0.00 | 58 | 1021.7 |
| 20260508145840 | 55 | 94 | 2.0 | 4.0 | 0.00 | 0.00 | 0.00 | 59 | 1021.7 |
| 20260508145340 | 54 | 106 | 2.0 | 4.0 | 0.00 | 0.00 | 0.00 | 62 | 1021.7 |
| 20260508144839 | 54 | 108 | 2.0 | 3.0 | 0.00 | 0.00 | 0.00 | 65 | 1021.7 |
| 20260508144339 | 53 | 103 | 2.0 | 4.0 | 0.00 | 0.00 | 0.00 | 62 | 1021.7 |
| 20260508143839 | 53 | 105 | 2.0 | 3.0 | 0.00 | 0.00 | 0.00 | 65 | 1021.7 |
| 20260508143339 | 52 | 105 | 3.0 | 4.0 | 0.00 | 0.00 | 0.00 | 67 | 1021.7 |
| 20260508142840 | 51 | 105 | 2.0 | 3.0 | 0.00 | 0.00 | 0.00 | 70 | 1021.3 |
| 20260508142339 | 51 | 121 | 1.0 | 3.0 | 0.00 | 0.00 | 0.00 | 76 | 1021.3 |
| 20260508141840 | 51 | 127 | 0.0 | 3.0 | 0.00 | 0.00 | 0.00 | 80 | 1021.7 |
| 20260508141340 | 50 | 105 | 3.0 | 3.0 | 0.00 | 0.00 | 0.00 | 85 | 1021.3 |
| 20260508140840 | 48 | 100 | 2.0 | 3.0 | 0.00 | 0.00 | 0.00 | 89 | 1021.7 |
| 20260508140342 | 47 | 102 | 3.0 | 3.0 | 0.00 | 0.00 | 0.00 | 90 | 1021.7 |
| 20260508135840 | 47 | 111 | 2.0 | 3.0 | 0.00 | 0.00 | 0.00 | 93 | 1021.7 |
| 20260508135340 | 46 | 97 | 1.0 | 3.0 | 0.00 | 0.00 | 0.00 | 96 | 1021.3 |
| 20260508134840 | 46 | 110 | 2.0 | 3.0 | 0.00 | 0.00 | 0.00 | 97 | 1021.3 |
| 20260508134347 | 45 | 129 | 3.0 | 3.0 | 0.00 | 0.00 | 0.00 | 97 | 1021.3 |
| 20260508133842 | 44 | 89 | 2.0 | 3.0 | 0.00 | 0.00 | 0.00 | 97 | 1021.7 |
| 20260508133341 | 44 | 119 | 2.0 | 3.0 | 0.00 | 0.00 | 0.00 | 97 | 1021.7 |
| 20260508132842 | 43 | 84 | 2.0 | 3.0 | 0.00 | 0.00 | 0.00 | 97 | 1021.7 |
| 20260508132345 | 42 | 96 | 2.0 | 3.0 | 0.00 | 0.00 | 0.00 | 97 | 1021.7 |
| 20260508131840 | 41 | 138 | 2.0 | 2.0 | 0.00 | 0.00 | 0.00 | 98 | 1021.7 |
| 20260508131341 | 40 | 124 | 0.0 | 2.0 | 0.00 | 0.00 | 0.00 | 98 | 1021.7 |
| 20260508130843 | 40 | 69 | 1.0 | 3.0 | 0.00 | 0.00 | 0.00 | 98 | 1021.7 |
| 20260508130342 | 40 | 53 | 2.0 | 2.0 | 0.00 | 0.00 | 0.00 | 97 | 1021.7 |
| 20260508125844 | 39 | 107 | 2.0 | 3.0 | 0.00 | 0.00 | 0.00 | 97 | 1021.7 |
| 20260508125340 | 39 | 127 | 1.0 | 3.0 | 0.00 | 0.00 | 0.00 | 97 | 1021.7 |
| 20260508124841 | 38 | 167 | 1.0 | 3.0 | 0.00 | 0.00 | 0.00 | 98 | 1021.3 |
| 20260508124340 | 38 | 70 | 2.0 | 4.0 | 0.00 | 0.00 | 0.00 | 98 | 1021.7 |
| 20260508123841 | 38 | 62 | 2.0 | 3.0 | 0.00 | 0.00 | 0.00 | 97 | 1021.7 |
| 20260508123340 | 37 | 219 | 1.0 | 3.0 | 0.00 | 0.00 | 0.00 | 97 | 1021.7 |
| 20260508122841 | 37 | 205 | 0.0 | 3.0 | 0.00 | 0.00 | 0.00 | 98 | 1021.7 |
| 20260508122343 | 37 | 79 | 1.0 | 3.0 | 0.00 | 0.00 | 0.00 | 98 | 1021.7 |
| 20260508121842 | 36 | 30 | 0.0 | 2.0 | 0.00 | 0.00 | 0.00 | 98 | 1021.7 |
| 20260508121341 | 36 | 104 | 2.0 | 4.0 | 0.00 | 0.00 | 0.00 | 98 | 1021.7 |
| 20260508120841 | 36 | 20 | 0.0 | 3.0 | 0.00 | 0.00 | 0.00 | 98 | 1021.7 |
| 20260508120342 | 36 | 345 | 2.0 | 4.0 | 0.00 | 0.00 | 0.00 | 98 | 1021.3 |
| 20260508115841 | 35 | 58 | 3.0 | 5.0 | 0.00 | 0.00 | 0.00 | 98 | 1021.3 |
| 20260508115341 | 35 | 46 | 2.0 | 5.0 | 0.00 | 0.00 | 0.00 | 98 | 1021.7 |
| 20260508114841 | 35 | 302 | 3.0 | 4.0 | 0.00 | 0.00 | 0.00 | 98 | 1021.7 |
| 20260508114340 | 35 | 191 | 1.0 | 3.0 | 0.00 | 0.00 | 0.00 | 97 | 1021.3 |
| 20260508113843 | 35 | 287 | 1.0 | 3.0 | 0.00 | 0.00 | 0.00 | 97 | 1021.3 |
| 20260508113343 | 35 | 85 | 2.0 | 3.0 | 0.00 | 0.00 | 0.00 | 97 | 1021.3 |
| 20260508112843 | 35 | 67 | 2.0 | 3.0 | 0.00 | 0.00 | 0.00 | 97 | 1021.0 |
| 20260508112340 | 35 | 127 | 3.0 | 3.0 | 0.00 | 0.00 | 0.00 | 97 | 1021.3 |
| 20260508111842 | 35 | 189 | 2.0 | 2.0 | 0.00 | 0.00 | 0.00 | 97 | 1021.0 |
| 20260508111005 | 35 | 311 | 0.0 | 3.0 | 0.00 | 0.00 | 0.00 | 97 | 1021.0 |
| 20260508110339 | 35 | 195 | 0.0 | 4.0 | 0.00 | 0.00 | 0.00 | 97 | 1021.0 |
| 20260508105839 | 35 | 233 | 1.0 | 3.0 | 0.00 | 0.00 | 0.00 | 97 | 1021.0 |
| 20260508105339 | 35 | 79 | 3.0 | 4.0 | 0.00 | 0.00 | 0.00 | 97 | 1020.7 |
| 20260508104840 | 35 | 35 | 3.0 | 5.0 | 0.00 | 0.00 | 0.00 | 97 | 1020.7 |
| 20260508104339 | 35 | 25 | 3.0 | 4.0 | 0.00 | 0.00 | 0.00 | 97 | 1020.7 |
| 20260508103845 | 35 | 137 | 0.0 | 3.0 | 0.00 | 0.00 | 0.00 | 97 | 1020.7 |
| 20260508103341 | 35 | 67 | 2.0 | 3.0 | 0.00 | 0.00 | 0.00 | 97 | 1020.7 |
| 20260508102839 | 35 | 47 | 1.0 | 4.0 | 0.00 | 0.00 | 0.00 | 97 | 1020.7 |
| 20260508102340 | 35 | 123 | 1.0 | 3.0 | 0.00 | 0.00 | 0.00 | 97 | 1020.7 |
| 20260508101840 | 35 | 51 | 2.0 | 2.0 | 0.00 | 0.00 | 0.00 | 97 | 1020.7 |
| 20260508101340 | 35 | 66 | 0.0 | 3.0 | 0.00 | 0.00 | 0.00 | 97 | 1020.7 |
| 20260508100839 | 35 | 144 | 3.0 | 4.0 | 0.00 | 0.00 | 0.00 | 97 | 1020.3 |
| 20260508100339 | 35 | 85 | 2.0 | 3.0 | 0.00 | 0.00 | 0.00 | 97 | 1020.3 |
| 20260508095839 | 35 | 256 | 0.0 | 3.0 | 0.00 | 0.00 | 0.00 | 97 | 1020.3 |
| 20260508095342 | 35 | 166 | 0.0 | 3.0 | 0.00 | 0.00 | 0.00 | 97 | 1020.3 |
| 20260508094840 | 35 | 44 | 3.0 | 4.0 | 0.00 | 0.00 | 0.00 | 97 | 1020.3 |
| 20260508094340 | 35 | 12 | 3.0 | 5.0 | 0.00 | 0.00 | 0.00 | 97 | 1020.3 |
| 20260508093843 | 35 | 235 | 2.0 | 4.0 | 0.00 | 0.00 | 0.00 | 97 | 1020.3 |
| 20260508093339 | 36 | 132 | 2.0 | 4.0 | 0.00 | 0.00 | 0.00 | 97 | 1020.3 |
| 20260508092839 | 36 | 183 | 0.0 | 3.0 | 0.00 | 0.00 | 0.00 | 97 | 1020.3 |
| 20260508092339 | 36 | 149 | 1.0 | 4.0 | 0.00 | 0.00 | 0.00 | 97 | 1020.3 |
| 20260508091839 | 36 | 69 | 1.0 | 3.0 | 0.00 | 0.00 | 0.00 | 97 | 1020.3 |
| 20260508091339 | 36 | 306 | 0.0 | 3.0 | 0.00 | 0.00 | 0.00 | 97 | 1020.3 |
| 20260508090840 | 36 | 245 | 1.0 | 3.0 | 0.00 | 0.00 | 0.00 | 97 | 1020.0 |
| 20260508090339 | 36 | 27 | 2.0 | 5.0 | 0.00 | 0.00 | 0.00 | 97 | 1020.0 |
| 20260508085842 | 36 | 22 | 0.0 | 4.0 | 0.00 | 0.00 | 0.00 | 97 | 1020.0 |
| 20260508085339 | 36 | 15 | 2.0 | 4.0 | 0.00 | 0.00 | 0.00 | 97 | 1020.0 |
| 20260508084839 | 36 | 70 | 4.0 | 4.0 | 0.00 | 0.00 | 0.00 | 97 | 1020.0 |
| 20260508084339 | 36 | 68 | 0.0 | 3.0 | 0.00 | 0.00 | 0.00 | 97 | 1020.3 |
| 20260508083840 | 36 | 222 | 0.0 | 4.0 | 0.00 | 0.00 | 0.00 | 97 | 1020.0 |
| 20260508083340 | 36 | 220 | 2.0 | 4.0 | 0.00 | 0.00 | 0.00 | 97 | 1019.6 |
| 20260508082841 | 37 | 95 | 1.0 | 4.0 | 0.00 | 0.00 | 0.00 | 97 | 1019.6 |
| 20260508082339 | 37 | 172 | 0.0 | 3.0 | 0.00 | 0.00 | 0.00 | 97 | 1020.0 |
| 20260508081841 | 37 | 148 | 4.0 | 6.0 | 0.00 | 0.00 | 0.00 | 97 | 1020.0 |
| 20260508081340 | 37 | 209 | 1.0 | 4.0 | 0.00 | 0.00 | 0.00 | 97 | 1020.0 |
| 20260508080840 | 37 | 49 | 4.0 | 6.0 | 0.00 | 0.00 | 0.00 | 97 | 1019.6 |
| 20260508080340 | 37 | 42 | 3.0 | 4.0 | 0.00 | 0.00 | 0.00 | 97 | 1019.3 |
| 20260508075839 | 37 | 27 | 3.0 | 5.0 | 0.00 | 0.00 | 0.00 | 97 | 1020.0 |
| 20260508075340 | 37 | 5 | 2.0 | 3.0 | 0.00 | 0.00 | 0.00 | 97 | 1019.6 |
| 20260508074839 | 37 | 322 | 0.0 | 2.0 | 0.00 | 0.00 | 0.00 | 97 | 1019.6 |
| 20260508074339 | 37 | 203 | 2.0 | 3.0 | 0.00 | 0.00 | 0.00 | 97 | 1019.6 |
| 20260508073840 | 37 | 275 | 0.0 | 4.0 | 0.00 | 0.00 | 0.00 | 97 | 1019.6 |
| 20260508073340 | 37 | 338 | 0.0 | 5.0 | 0.00 | 0.00 | 0.00 | 97 | 1019.6 |
| 20260508072839 | 37 | 160 | 4.0 | 5.0 | 0.00 | 0.00 | 0.00 | 97 | 1019.6 |
| 20260508072340 | 37 | 182 | 0.0 | 4.0 | 0.00 | 0.00 | 0.00 | 97 | 1019.6 |
| 20260508071840 | 37 | 130 | 0.0 | 0.0 | 0.00 | 0.00 | 0.00 | 97 | 1020.0 |
| 20260508071340 | 38 | 164 | 3.0 | 5.0 | 0.00 | 0.00 | 0.00 | 96 | 1019.6 |
| 20260508070839 | 38 | 150 | 0.0 | 0.0 | 0.00 | 0.00 | 0.00 | 96 | 1019.3 |
| 20260508070340 | 38 | 214 | 0.0 | 1.0 | 0.00 | 0.00 | 0.00 | 96 | 1019.6 |
| 20260508065840 | 38 | 124 | 0.0 | 1.0 | 0.00 | 0.00 | 0.00 | 96 | 1019.3 |
| 20260508065340 | 38 | 180 | 0.0 | 1.0 | 0.00 | 0.00 | 0.00 | 96 | 1019.3 |
| 20260508064839 | 38 | 66 | 0.0 | 0.0 | 0.00 | 0.00 | 0.00 | 96 | 1019.3 |
| 20260508064344 | 38 | 55 | 0.0 | 0.0 | 0.00 | 0.00 | 0.00 | 96 | 1019.3 |
| 20260508063839 | 38 | 218 | 0.0 | 0.0 | 0.00 | 0.00 | 0.00 | 96 | 1019.3 |
| 20260508063339 | 38 | 129 | 0.0 | 0.0 | 0.00 | 0.00 | 0.00 | 96 | 1019.3 |
| 20260508062840 | 39 | 103 | 0.0 | 0.0 | 0.00 | 0.00 | 0.00 | 96 | 1019.3 |
| 20260508062340 | 39 | 235 | 0.0 | 0.0 | 0.00 | 0.00 | 0.00 | 96 | 1019.3 |
| 20260508061839 | 39 | 116 | 0.0 | 0.0 | 0.00 | 0.00 | 0.00 | 96 | 1019.3 |
| 20260508061339 | 39 | 32 | 0.0 | 1.0 | 0.00 | 0.00 | 0.00 | 96 | 1019.3 |
| 20260508060839 | 39 | 209 | 0.0 | 0.0 | 0.00 | 0.00 | 0.00 | 96 | 1019.3 |
| 20260508060339 | 39 | 180 | 0.0 | 0.0 | 0.00 | 0.00 | 0.00 | 96 | 1019.3 |
| 20260508055839 | 39 | 218 | 0.0 | 0.0 | 0.00 | 0.00 | 0.00 | 96 | 1019.3 |
| 20260508055339 | 39 | 150 | 0.0 | 0.0 | 0.00 | 0.00 | 0.00 | 96 | 1019.3 |
| 20260508054839 | 39 | 150 | 0.0 | 0.0 | 0.00 | 0.00 | 0.00 | 96 | 1019.6 |
| 20260508054339 | 39 | 230 | 0.0 | 1.0 | 0.00 | 0.00 | 0.00 | 96 | 1019.6 |
| 20260508053839 | 39 | 310 | 0.0 | 0.0 | 0.00 | 0.00 | 0.00 | 96 | 1019.6 |
| 20260508053341 | 40 | 22 | 0.0 | 0.0 | 0.00 | 0.00 | 0.00 | 96 | 1019.6 |
| 20260508052839 | 40 | 173 | 0.0 | 0.0 | 0.00 | 0.00 | 0.00 | 96 | 1019.6 |
| 20260508052339 | 40 | 58 | 0.0 | 1.0 | 0.00 | 0.00 | 0.00 | 96 | 1019.6 |
| 20260508051839 | 40 | 32 | 0.0 | 1.0 | 0.00 | 0.00 | 0.00 | 96 | 1019.6 |
| 20260508051341 | 40 | 124 | 0.0 | 0.0 | 0.00 | 0.00 | 0.00 | 96 | 1019.6 |
| 20260508050839 | 40 | 202 | 0.0 | 0.0 | 0.00 | 0.00 | 0.00 | 96 | 1019.3 |
| 20260508050339 | 40 | 239 | 0.0 | 1.0 | 0.00 | 0.00 | 0.00 | 96 | 1019.6 |
| 20260508045839 | 40 | 135 | 0.0 | 0.0 | 0.00 | 0.00 | 0.02 | 96 | 1019.3 |
| 20260508045339 | 41 | 65 | 1.0 | 2.0 | 0.00 | 0.00 | 0.02 | 96 | 1019.0 |
| 20260508044848 | 41 | 246 | 0.0 | 0.0 | 0.00 | 0.00 | 0.02 | 95 | 1019.0 |
| 20260508044339 | 41 | 212 | 0.0 | 0.0 | 0.00 | 0.00 | 0.02 | 95 | 1019.0 |
| 20260508043840 | 41 | 135 | 0.0 | 1.0 | 0.00 | 0.00 | 0.02 | 95 | 1019.0 |
| 20260508043339 | 41 | 186 | 0.0 | 1.0 | 0.00 | 0.00 | 0.02 | 96 | 1019.0 |
| 20260508042839 | 41 | 55 | 0.0 | 1.0 | 0.00 | 0.00 | 0.02 | 95 | 1019.0 |
| 20260508042340 | 41 | 55 | 0.0 | 1.0 | 0.00 | 0.00 | 0.02 | 95 | 1018.6 |
| 20260508041846 | 41 | 6 | 0.0 | 0.0 | 0.00 | 0.00 | 0.02 | 95 | 1019.0 |
| 20260508041340 | 41 | 232 | 0.0 | 1.0 | 0.00 | 0.00 | 0.02 | 95 | 1018.6 |
| 20260508040840 | 42 | 37 | 0.0 | 1.0 | 0.00 | 0.00 | 0.02 | 95 | 1018.3 |
| 20260508040340 | 42 | 193 | 0.0 | 1.0 | 0.00 | 0.00 | 0.02 | 95 | 1018.3 |
| 20260508035840 | 42 | 50 | 0.0 | 0.0 | 0.00 | 0.00 | 0.02 | 95 | 1018.6 |
| 20260508035340 | 42 | 230 | 0.0 | 0.0 | 0.00 | 0.00 | 0.02 | 95 | 1018.6 |
| 20260508034839 | 42 | 126 | 0.0 | 0.0 | 0.00 | 0.00 | 0.02 | 95 | 1018.3 |
| 20260508034340 | 42 | 129 | 0.0 | 0.0 | 0.00 | 0.00 | 0.02 | 95 | 1018.6 |
| 20260508033839 | 42 | 186 | 0.0 | 0.0 | 0.00 | 0.00 | 0.02 | 95 | 1018.6 |
| 20260508033340 | 42 | 76 | 0.0 | 1.0 | 0.00 | 0.00 | 0.02 | 95 | 1018.6 |
| 20260508032839 | 43 | 48 | 0.0 | 1.0 | 0.00 | 0.00 | 0.02 | 95 | 1018.6 |
| 20260508032340 | 43 | 45 | 0.0 | 1.0 | 0.00 | 0.00 | 0.02 | 95 | 1018.6 |
| 20260508031840 | 43 | 326 | 0.0 | 0.0 | 0.00 | 0.00 | 0.02 | 94 | 1018.6 |
| 20260508031339 | 43 | 217 | 0.0 | 0.0 | 0.00 | 0.00 | 0.02 | 94 | 1018.6 |
| 20260508030839 | 43 | 225 | 1.0 | 1.0 | 0.00 | 0.00 | 0.02 | 94 | 1018.6 |
| 20260508030340 | 44 | 89 | 0.0 | 1.0 | 0.00 | 0.00 | 0.02 | 94 | 1017.9 |
| 20260508025839 | 44 | 92 | 1.0 | 2.0 | 0.00 | 0.00 | 0.02 | 94 | 1018.3 |
| 20260508024850 | 44 | 44 | 0.0 | 0.0 | 0.00 | 0.00 | 0.02 | 94 | 1018.3 |
| 20260508024340 | 44 | 57 | 0.0 | 0.0 | 0.00 | 0.00 | 0.02 | 94 | 1018.3 |
| 20260508023839 | 44 | 229 | 0.0 | 1.0 | 0.00 | 0.00 | 0.02 | 93 | 1018.3 |
| 20260508023340 | 44 | 217 | 0.0 | 0.0 | 0.00 | 0.00 | 0.02 | 93 | 1017.9 |
| 20260508022839 | 45 | 228 | 0.0 | 2.0 | 0.00 | 0.00 | 0.02 | 93 | 1017.9 |
| 20260508022339 | 45 | 37 | 0.0 | 0.0 | 0.00 | 0.00 | 0.02 | 93 | 1017.9 |
| 20260508021840 | 45 | 105 | 0.0 | 0.0 | 0.00 | 0.00 | 0.02 | 92 | 1017.9 |
| 20260508021339 | 45 | 216 | 0.0 | 1.0 | 0.00 | 0.00 | 0.02 | 92 | 1017.6 |
| 20260508020840 | 46 | 124 | 0.0 | 2.0 | 0.00 | 0.00 | 0.02 | 92 | 1017.6 |
| 20260508020341 | 46 | 293 | 0.0 | 1.0 | 0.00 | 0.00 | 0.02 | 92 | 1017.6 |
| 20260508015839 | 46 | 202 | 0.0 | 1.0 | 0.00 | 0.00 | 0.02 | 92 | 1017.6 |
| 20260508015339 | 46 | 135 | 0.0 | 0.0 | 0.00 | 0.00 | 0.02 | 92 | 1017.3 |
| 20260508014840 | 46 | 113 | 0.0 | 1.0 | 0.00 | 0.00 | 0.02 | 91 | 1017.3 |
| 20260508014339 | 46 | 217 | 0.0 | 0.0 | 0.00 | 0.00 | 0.02 | 91 | 1017.3 |
| 20260508013840 | 46 | 102 | 0.0 | 1.0 | 0.00 | 0.00 | 0.02 | 91 | 1017.3 |
| 20260508013340 | 47 | 33 | 0.0 | 1.0 | 0.00 | 0.00 | 0.02 | 92 | 1016.9 |
| 20260508012840 | 47 | 180 | 0.0 | 1.0 | 0.00 | 0.00 | 0.02 | 92 | 1016.9 |
| 20260508012339 | 47 | 230 | 0.0 | 1.0 | 0.00 | 0.00 | 0.02 | 91 | 1016.9 |
| 20260508011841 | 48 | 142 | 0.0 | 0.0 | 0.00 | 0.00 | 0.02 | 91 | 1016.6 |
| 20260508011340 | 48 | 113 | 0.0 | 1.0 | 0.00 | 0.00 | 0.02 | 90 | 1016.9 |
| 20260508010839 | 48 | 50 | 0.0 | 1.0 | 0.00 | 0.00 | 0.02 | 90 | 1016.6 |
| 20260508010339 | 48 | 135 | 0.0 | 1.0 | 0.00 | 0.00 | 0.02 | 90 | 1016.6 |
| 20260508005839 | 49 | 113 | 0.0 | 0.0 | 0.00 | 0.00 | 0.02 | 89 | 1016.6 |
| 20260508005339 | 49 | 157 | 0.0 | 1.0 | 0.00 | 0.00 | 0.02 | 89 | 1016.3 |
| 20260508004839 | 49 | 61 | 0.0 | 2.0 | 0.00 | 0.00 | 0.02 | 89 | 1016.3 |
| 20260508004339 | 49 | 149 | 0.0 | 1.0 | 0.00 | 0.00 | 0.02 | 89 | 1016.3 |
| 20260508003840 | 50 | 162 | 0.0 | 1.0 | 0.00 | 0.00 | 0.02 | 90 | 1016.3 |
| 20260508003340 | 50 | 66 | 0.0 | 0.0 | 0.00 | 0.00 | 0.02 | 89 | 1016.3 |
| 20260508002840 | 51 | 296 | 0.0 | 1.0 | 0.00 | 0.00 | 0.02 | 88 | 1016.3 |
| 20260508002340 | 51 | 129 | 0.0 | 0.0 | 0.00 | 0.00 | 0.02 | 87 | 1016.3 |
| 20260508001839 | 51 | 322 | 0.0 | 1.0 | 0.00 | 0.00 | 0.02 | 86 | 1015.9 |
| 20260508001340 | 51 | 135 | 0.0 | 0.0 | 0.00 | 0.00 | 0.02 | 87 | 1015.9 |
| 20260508000840 | 52 | 227 | 0.0 | 2.0 | 0.00 | 0.00 | 0.02 | 86 | 1015.9 |
| 20260508000342 | 52 | 62 | 0.0 | 0.0 | 0.00 | 0.00 | 0.02 | 86 | 1015.9 |
| 20260507235839 | 53 | 170 | 0.0 | 1.0 | 0.00 | 0.00 | 0.02 | 85 | 1015.6 |
| 20260507235340 | 53 | 109 | 0.0 | 1.0 | 0.00 | 0.00 | 0.02 | 85 | 1015.6 |
| 20260507234839 | 54 | 147 | 0.0 | 1.0 | 0.00 | 0.00 | 0.02 | 83 | 1015.6 |
| 20260507234339 | 54 | 218 | 0.0 | 2.0 | 0.00 | 0.00 | 0.02 | 82 | 1015.6 |
| 20260507233840 | 54 | 217 | 0.0 | 1.0 | 0.00 | 0.00 | 0.02 | 81 | 1015.6 |
| 20260507233340 | 54 | 224 | 0.0 | 0.0 | 0.00 | 0.00 | 0.02 | 82 | 1015.6 |
| 20260507232839 | 55 | 43 | 0.0 | 1.0 | 0.00 | 0.00 | 0.02 | 81 | 1015.6 |
| 20260507232339 | 55 | 159 | 0.0 | 1.0 | 0.00 | 0.00 | 0.02 | 79 | 1015.2 |
| 20260507231840 | 55 | 142 | 0.0 | 1.0 | 0.00 | 0.00 | 0.02 | 80 | 1015.6 |
| 20260507231340 | 55 | 93 | 0.0 | 2.0 | 0.00 | 0.00 | 0.02 | 80 | 1015.6 |
| 20260507230840 | 55 | 142 | 0.0 | 0.0 | 0.00 | 0.00 | 0.02 | 80 | 1015.6 |
| 20260507230340 | 56 | 242 | 0.0 | 3.0 | 0.00 | 0.00 | 0.02 | 80 | 1015.6 |
| 20260507225839 | 56 | 66 | 0.0 | 2.0 | 0.00 | 0.00 | 0.02 | 81 | 1015.6 |
| 20260507225340 | 57 | 269 | 0.0 | 2.0 | 0.00 | 0.00 | 0.02 | 80 | 1015.6 |
| 20260507224839 | 57 | 103 | 0.0 | 2.0 | 0.00 | 0.00 | 0.02 | 79 | 1015.6 |
| 20260507224340 | 57 | 204 | 1.0 | 3.0 | 0.00 | 0.00 | 0.02 | 79 | 1015.6 |
| 20260507223839 | 58 | 224 | 0.0 | 3.0 | 0.00 | 0.00 | 0.02 | 74 | 1015.6 |
| 20260507223343 | 58 | 108 | 2.0 | 3.0 | 0.00 | 0.00 | 0.02 | 76 | 1015.2 |
| 20260507222840 | 58 | 62 | 1.0 | 3.0 | 0.00 | 0.00 | 0.02 | 75 | 1015.2 |
| 20260507222339 | 58 | 103 | 2.0 | 3.0 | 0.00 | 0.00 | 0.02 | 77 | 1015.2 |
| 20260507221843 | 58 | 55 | 0.0 | 1.0 | 0.00 | 0.00 | 0.02 | 75 | 1015.2 |
| 20260507221339 | 58 | 117 | 0.0 | 1.0 | 0.00 | 0.00 | 0.02 | 78 | 1015.2 |
| 20260507220839 | 58 | 216 | 2.0 | 2.0 | 0.00 | 0.00 | 0.02 | 79 | 1015.6 |
| 20260507220339 | 58 | 61 | 1.0 | 2.0 | 0.00 | 0.00 | 0.02 | 79 | 1015.2 |
| 20260507215839 | 59 | 253 | 0.0 | 3.0 | 0.00 | 0.00 | 0.02 | 76 | 1015.2 |
| 20260507215342 | 59 | 96 | 3.0 | 3.0 | 0.00 | 0.00 | 0.02 | 73 | 1014.9 |
| 20260507214839 | 59 | 233 | 1.0 | 2.0 | 0.00 | 0.00 | 0.02 | 72 | 1014.9 |
| 20260507214339 | 60 | 32 | 0.0 | 1.0 | 0.00 | 0.00 | 0.02 | 70 | 1014.9 |
| 20260507213840 | 60 | 244 | 2.0 | 3.0 | 0.00 | 0.00 | 0.02 | 66 | 1015.2 |
| 20260507213339 | 61 | 348 | 0.0 | 1.0 | 0.00 | 0.00 | 0.02 | 65 | 1014.9 |
| 20260507212839 | 60 | 235 | 0.0 | 1.0 | 0.00 | 0.00 | 0.02 | 69 | 1014.9 |
| 20260507212339 | 61 | 15 | 0.0 | 1.0 | 0.00 | 0.00 | 0.02 | 65 | 1014.9 |
| 20260507211840 | 61 | 266 | 0.0 | 2.0 | 0.00 | 0.00 | 0.02 | 61 | 1014.9 |
| 20260507211340 | 62 | 275 | 1.0 | 3.0 | 0.00 | 0.00 | 0.02 | 55 | 1014.9 |
| 20260507210840 | 63 | 14 | 4.0 | 4.0 | 0.00 | 0.00 | 0.02 | 59 | 1014.9 |
| 20260507210339 | 63 | 247 | 3.0 | 6.0 | 0.00 | 0.00 | 0.02 | 57 | 1014.9 |
| 20260507205840 | 63 | 266 | 2.0 | 3.0 | 0.00 | 0.00 | 0.02 | 54 | 1014.9 |
| 20260507205340 | 63 | 279 | 1.0 | 7.0 | 0.00 | 0.00 | 0.02 | 52 | 1014.6 |
| 20260507204840 | 62 | 259 | 1.0 | 6.0 | 0.00 | 0.00 | 0.02 | 56 | 1014.9 |
| 20260507204340 | 62 | 297 | 2.0 | 3.0 | 0.00 | 0.00 | 0.02 | 57 | 1014.9 |
| 20260507203840 | 63 | 287 | 3.0 | 9.0 | 0.00 | 0.00 | 0.02 | 51 | 1014.9 |
| 20260507203340 | 62 | 289 | 0.0 | 2.0 | 0.00 | 0.00 | 0.02 | 58 | 1014.9 |
| 20260507202839 | 61 | 243 | 1.0 | 2.0 | 0.00 | 0.00 | 0.02 | 62 | 1014.6 |
| 20260507202339 | 61 | 262 | 3.0 | 3.0 | 0.00 | 0.00 | 0.02 | 59 | 1014.6 |
| 20260507201841 | 62 | 246 | 3.0 | 5.0 | 0.00 | 0.00 | 0.02 | 59 | 1014.9 |
| 20260507201340 | 62 | 79 | 0.0 | 4.0 | 0.00 | 0.00 | 0.02 | 53 | 1015.2 |
| 20260507200840 | 62 | 59 | 1.0 | 4.0 | 0.00 | 0.00 | 0.02 | 60 | 1015.2 |
| 20260507200340 | 62 | 112 | 2.0 | 3.0 | 0.00 | 0.00 | 0.02 | 57 | 1014.9 |
| 20260507195839 | 60 | 93 | 1.0 | 3.0 | 0.00 | 0.00 | 0.02 | 61 | 1015.2 |
| 20260507195341 | 60 | 73 | 1.0 | 2.0 | 0.00 | 0.00 | 0.02 | 62 | 1015.2 |
| 20260507194839 | 60 | 246 | 4.0 | 6.0 | 0.00 | 0.00 | 0.02 | 57 | 1015.6 |
| 20260507194340 | 61 | 274 | 2.0 | 4.0 | 0.00 | 0.00 | 0.02 | 59 | 1015.2 |
| 20260507193840 | 61 | 229 | 3.0 | 6.0 | 0.00 | 0.00 | 0.02 | 56 | 1015.2 |
| 20260507193339 | 60 | 144 | 1.0 | 8.0 | 0.00 | 0.00 | 0.02 | 59 | 1015.6 |
| 20260507192842 | 60 | 258 | 3.0 | 8.0 | 0.00 | 0.00 | 0.02 | 56 | 1015.6 |
| 20260507192340 | 60 | 348 | 1.0 | 2.0 | 0.00 | 0.00 | 0.02 | 60 | 1015.6 |
| 20260507191841 | 59 | 236 | 3.0 | 7.0 | 0.00 | 0.00 | 0.02 | 60 | 1015.6 |
| 20260507191339 | 58 | 257 | 0.0 | 2.0 | 0.00 | 0.00 | 0.02 | 69 | 1015.6 |
| 20260507190840 | 57 | 106 | 0.0 | 2.0 | 0.00 | 0.00 | 0.02 | 69 | 1016.3 |
| 20260507190340 | 57 | 328 | 0.0 | 3.0 | 0.00 | 0.00 | 0.02 | 66 | 1016.3 |
| 20260507185840 | 58 | 243 | 4.0 | 6.0 | 0.00 | 0.00 | 0.02 | 60 | 1016.3 |
| 20260507185339 | 58 | 251 | 2.0 | 7.0 | 0.00 | 0.00 | 0.02 | 65 | 1015.9 |
| 20260507184840 | 58 | 289 | 0.0 | 3.0 | 0.00 | 0.00 | 0.02 | 63 | 1016.3 |
| 20260507184340 | 57 | 249 | 3.0 | 5.0 | 0.00 | 0.00 | 0.02 | 66 | 1016.3 |
| 20260507183839 | 57 | 304 | 0.0 | 2.0 | 0.00 | 0.00 | 0.02 | 69 | 1016.3 |
| 20260507183340 | 57 | 242 | 1.0 | 3.0 | 0.00 | 0.00 | 0.02 | 69 | 1016.3 |
| 20260507182840 | 58 | 262 | 4.0 | 4.0 | 0.00 | 0.00 | 0.02 | 69 | 1016.3 |
| 20260507182340 | 58 | 100 | 0.0 | 2.0 | 0.00 | 0.00 | 0.02 | 67 | 1016.6 |
| 20260507181840 | 59 | 266 | 3.0 | 5.0 | 0.00 | 0.00 | 0.02 | 65 | 1016.3 |
| 20260507181341 | 58 | 77 | 1.0 | 3.0 | 0.00 | 0.00 | 0.02 | 68 | 1016.3 |
| 20260507180839 | 58 | 109 | 0.0 | 2.0 | 0.00 | 0.00 | 0.02 | 71 | 1016.6 |
| 20260507180340 | 58 | 81 | 1.0 | 2.0 | 0.00 | 0.00 | 0.02 | 67 | 1016.6 |
| 20260507175839 | 57 | 126 | 0.0 | 3.0 | 0.00 | 0.00 | 0.02 | 67 | 1016.6 |
| 20260507175339 | 57 | 312 | 0.0 | 2.0 | 0.00 | 0.00 | 0.02 | 71 | 1016.6 |
| 20260507174840 | 57 | 259 | 5.0 | 6.0 | 0.00 | 0.00 | 0.02 | 66 | 1016.6 |
| 20260507174340 | 58 | 239 | 5.0 | 5.0 | 0.00 | 0.00 | 0.02 | 63 | 1016.3 |
| 20260507173840 | 58 | 55 | 0.0 | 4.0 | 0.00 | 0.00 | 0.02 | 67 | 1016.6 |